TimePDT,TemperatureF,Dew PointF,Humidity,Sea Level PressureIn,VisibilityMPH,Wind Direction,Wind SpeedMPH,Gust SpeedMPH,PrecipitationIn,Events,Conditions,WindDirDegrees,DateUTC
12:52 AM,52.0,42.1,69,29.88,10.0,NNE,6.9,-,N/A,,Clear,20,2013-05-17 07:52:00
1:52 AM,51.1,42.1,71,29.87,10.0,North,4.6,-,N/A,,Clear,10,2013-05-17 08:52:00
2:52 AM,53.1,42.1,66,29.87,10.0,Calm,Calm,-,N/A,,Clear,0,2013-05-17 09:52:00
3:52 AM,48.9,42.1,77,29.87,10.0,North,4.6,-,N/A,,Clear,360,2013-05-17 10:52:00
4:52 AM,50.0,42.1,74,29.87,10.0,NNE,4.6,-,N/A,,Clear,30,2013-05-17 11:52:00
5:52 AM,50.0,42.1,74,29.88,10.0,NE,9.2,-,N/A,,Clear,40,2013-05-17 12:52:00
6:52 AM,52.0,43.0,71,29.89,10.0,Calm,Calm,-,N/A,,Clear,0,2013-05-17 13:52:00
7:52 AM,57.0,44.1,62,29.90,10.0,East,4.6,-,N/A,,Clear,90,2013-05-17 14:52:00
8:52 AM,59.0,46.0,62,29.89,10.0,ESE,3.5,-,N/A,,Clear,120,2013-05-17 15:52:00
9:52 AM,63.0,46.9,56,29.88,10.0,South,3.5,-,N/A,,Clear,190,2013-05-17 16:52:00
10:52 AM,66.0,46.9,50,29.89,10.0,Variable,3.5,-,N/A,,Clear,0,2013-05-17 17:52:00
11:52 AM,69.1,46.0,44,29.87,10.0,Variable,4.6,-,N/A,,Clear,0,2013-05-17 18:52:00
1:52 PM,73.0,42.1,33,29.85,10.0,South,10.4,16.1,N/A,,Clear,170,2013-05-17 20:52:00
2:52 PM,73.9,44.1,34,29.84,10.0,SW,9.2,18.4,N/A,,Clear,220,2013-05-17 21:52:00
3:52 PM,73.9,43.0,33,29.85,10.0,WSW,11.5,18.4,N/A,,Partly Cloudy,240,2013-05-17 22:52:00
4:52 PM,64.9,46.9,52,29.88,10.0,NE,13.8,-,N/A,,Overcast,40,2013-05-17 23:52:00
5:52 PM,64.9,46.0,50,29.88,10.0,NE,11.5,-,N/A,,Overcast,40,2013-05-18 00:52:00
6:52 PM,64.9,46.0,50,29.89,10.0,East,4.6,-,N/A,,Clear,100,2013-05-18 01:52:00
7:52 PM,62.1,48.0,60,29.90,10.0,SSE,12.7,-,N/A,,Mostly Cloudy,160,2013-05-18 02:52:00
8:52 PM,61.0,48.9,64,29.92,10.0,SSE,3.5,-,N/A,,Overcast,160,2013-05-18 03:52:00
9:52 PM,60.1,50.0,69,29.93,10.0,SE,3.5,-,N/A,,Overcast,130,2013-05-18 04:52:00
10:52 PM,59.0,51.1,75,29.93,10.0,Calm,Calm,-,N/A,,Overcast,0,2013-05-18 05:52:00
11:52 PM,59.0,50.0,72,29.92,10.0,South,4.6,-,N/A,,Overcast,190,2013-05-18 06:52:00